Lid_Strength_Index
4 4 4 4 4 4 4 5 4 4 4 5 5 4 5 5 5 5 4 4 4 4 5 4 4 3 4 7 7 3 -2 -1 0 1 4 6 7 8 8 7 6 7 7 5 5 5 5
4 4 5 5 4 4 5 5 5 5 5 5 5 5 5 5 4 4 4 4 5 5 5 4 4 3 5 11 6 4 0 1 1 3 4 5 6 5 7 7 7 6 6 6 5 5 5
4 5 5 5 5 5 5 5 5 5 5 5 5 5 5 5 5 5 5 5 5 5 5 4 3 3 6 9 4 3 2 3 2 3 5 4 4 6 6 8 6 6 7 6 6 6 6
4 4 4 5 5 5 5 5 5 5 5 5 5 5 5 5 5 5 5 6 5 5 5 4 2 4 8 4 4 5 5 4 2 3 3 4 4 6 8 7 7 8 9 11 8 6 6
4 5 5 5 5 5 5 5 5 5 5 5 5 5 5 6 6 6 6 6 5 4 4 2 4 5 7 1 5 4 4 5 4 4 4 2 4 7 7 11 12 11 12 11 9 6 6
4 4 5 5 5 5 5 5 6 6 6 6 6 6 6 6 6 7 7 7 5 4 3 2 3 6 4 5 4 3 3 4 5 5 5 6 7 9 9 12 15 13 12 11 10 7 7
4 4 5 5 5 5 5 6 6 6 6 6 6 6 6 6 7 7 8 10 9 9 5 6 7 6 7 4 3 3 3 5 6 8 10 8 10 11 10 10 10 10 10 10 9 6 7
4 5 5 5 5 5 5 5 6 6 6 6 6 7 7 7 7 8 9 10 9 9 12 9 8 7 5 4 5 4 3 7 8 10 8 9 11 8 7 8 10 10 10 10 8 7 8
4 4 5 5 5 5 5 5 6 6 6 6 6 7 7 7 8 8 10 10 8 9 13 11 9 10 9 8 7 6 5 6 8 9 8 10 9 6 7 8 10 11 11 10 10 8 7
4 4 4 4 5 5 5 5 6 6 6 6 6 7 7 8 9 10 10 7 7 8 16 13 11 9 9 8 9 4 4 6 7 9 8 9 7 7 8 9 9 12 9 9 9 10 13
4 4 4 5 5 5 5 5 5 6 6 6 6 7 8 8 11 11 8 7 7 10 19 9 9 6 8 10 8 6 4 6 8 8 9 10 8 9 9 9 7 9 8 9 9 11 11
4 4 4 4 4 5 5 5 5 6 6 6 6 7 8 9 10 9 8 8 9 16 18 11 8 10 10 10 9 7 6 6 6 7 8 9 7 7 8 7 7 7 8 9 10 11 14
4 4 4 4 4 5 5 6 6 6 6 6 7 8 9 8 12 8 8 10 17 18 10 10 10 9 10 11 10 10 10 10 11 12 11 9 9 7 6 9 8 8 11 13 15 14 15
5 5 5 5 5 5 5 5 6 6 6 7 8 9 8 8 7 8 9 13 18 13 13 9 9 9 10 9 10 10 11 11 10 10 11 12 13 9 7 9 11 10 10 13 17 15 14
4 4 5 5 5 5 5 6 6 6 6 7 8 9 10 8 7 8 11 17 16 13 11 12 11 12 11 9 9 10 11 11 10 10 12 12 11 7 7 7 8 10 12 10 14 13 14
5 5 5 5 6 6 6 6 6 6 6 7 10 10 9 6 6 9 13 16 14 11 11 12 15 12 14 13 12 10 11 9 9 8 8 10 12 8 7 7 7 9 9 12 11 16 16
5 6 5 5 6 6 6 6 6 6 6 7 10 12 7 6 7 10 15 14 12 10 9 11 12 13 13 13 12 13 12 8 7 8 8 9 10 10 8 9 10 11 10 12 12 11 14
5 5 5 5 5 5 5 6 6 7 7 8 11 15 6 5 11 11 13 11 10 10 9 10 10 11 12 12 13 13 13 11 6 6 9 8 10 12 11 8 7 8 10 11 13 15 13
4 4 4 4 4 4 5 5 5 6 6 8 12 12 5 5 14 11 9 9 8 9 10 10 11 11 11 12 14 12 11 9 8 9 8 8 10 13 12 10 8 10 9 10 10 12 13
3 3 3 3 3 3 3 3 4 4 4 6 9 12 7 5 5 8 9 10 10 7 9 8 10 10 12 12 11 12 12 9 8 8 5 6 9 11 14 12 11 10 9 9 10 13 13
3 3 2 1 1 1 1 1 0 0 -0 2 5 8 6 10 8 8 8 9 10 10 7 8 10 11 12 15 13 13 11 11 10 8 8 10 11 10 10 9 9 9 9 9 11 11 13
1 -0 -1 -1 -1 -1 -1 -2 -1 -1 -1 2 7 7 6 7 7 8 8 9 9 9 8 9 10 9 10 13 13 14 13 13 13 11 12 11 12 9 10 9 9 10 9 9 9 9 10
-1 -1 -1 -1 -1 -1 -2 -2 -1 -1 -1 3 2 3 6 8 8 9 8 8 8 7 8 7 8 8 10 10 10 11 11 11 12 12 13 12 13 12 13 10 10 12 10 9 9 8 9
-1 -1 -1 -2 -2 -2 -1 -1 -1 -1 -1 1 2 3 7 10 8 9 7 7 8 8 9 7 7 8 7 5 7 9 10 10 10 10 9 12 12 12 13 12 16 10 8 8 8 8 8
-2 -2 -2 -2 -2 -1 -1 -1 -1 -1 -1 1 1 4 6 10 8 8 7 7 7 7 7 7 6 5 4 6 10 12 12 11 11 10 10 9 11 12 15 14 12 10 8 9 10 10 7
-2 -2 -1 -1 -1 -1 -1 -1 -1 -2 -1 0 1 1 4 8 9 6 8 7 9 9 8 7 4 4 5 8 12 16 16 12 13 12 9 9 10 11 13 15 15 11 7 6 7 13 8
-1 -2 -1 -1 -1 -1 -2 -1 -1 -1 -1 -0 1 -0 3 8 6 6 8 8 6 8 9 8 7 7 6 10 14 15 15 11 14 14 13 12 11 12 13 14 12 9 7 6 13 13 8
-2 -2 -2 -1 -1 -1 -1 -1 -1 -1 -1 -0 1 -1 3 6 5 4 4 6 6 7 9 7 9 8 9 13 13 13 14 11 13 11 12 14 15 13 13 15 16 8 7 10 10 8 7
-2 -2 -2 -2 -2 -1 -1 -1 -1 -1 -1 -1 2 -1 -0 4 5 2 2 2 3 4 6 6 8 8 8 11 11 11 13 12 13 16 9 13 11 14 12 13 9 7 8 7 6 7 7